Location: Campodenno
(46.2500°N, 11.0333°E)
Time: 08:51:27
(UTC+00:00)

Daily predictions for brighter satellites

Satellite Brightness Start Highest point End
(mag) Time Altitude Azimuth Time Altitude Azimuth Time Altitude Azimuth
CENTAUR R/B 4.5 19:26:08 10° NNW 19:32:40 30° NNE 19:39:54 10° E
STARLINK-1082 3.7 19:31:26 10° WNW 19:35:36 79° SSW 19:39:44 10° SE
USA 186 4.2 19:35:35 10° SW 19:37:19 16° W 19:39:08 10° NW
Lacrosse 5 2.0 19:32:23 10° NW 19:37:26 72° SW 19:42:27 10° SE
STARLINK-1203 3.7 19:33:45 10° WSW 19:37:57 90° NW 19:42:11 10° ENE
STARLINK-1216 3.7 19:34:07 10° WSW 19:38:16 90° WNW 19:42:26 10° ENE
STARLINK-1100 3.7 19:36:25 10° WNW 19:40:33 74° SW 19:44:41 10° SE
ISS -3.3 19:37:19 10° WNW 19:40:37 53° SSW 19:43:54 10° SE
COSMOS 2406 4.2 19:36:26 10° NW 19:41:55 46° WSW 19:47:21 10° S
Cosmos 1975 3.8 19:38:34 10° NNW 19:42:29 48° W 19:46:20 10° SSW
STARLINK-1237 3.7 19:39:06 10° WSW 19:43:15 84° NNW 19:47:25 10° ENE
CZ-2C R/B 2.9 19:37:39 10° NNE 19:43:19 83° WNW 19:48:55 10° SSW
STARLINK-1083 3.8 19:41:25 10° WNW 19:45:32 68° SW 19:49:39 10° SE
Cosmos 1674 Rocket 4.3 19:43:19 10° SSE 19:47:15 34° E 19:51:15 10° NNE
Meteor 2-4 Rocket 3.6 19:41:56 10° S 19:47:18 87° E 19:52:42 10° NNE
STARLINK-1084 4.5 19:43:42 10° NW 19:47:44 47° NNE 19:51:44 10° E
STARLINK-1202 3.8 19:44:06 10° WSW 19:48:14 79° NNW 19:52:24 10° ENE
NOSS 2-2 (E) 4.2 19:46:06 10° S 19:49:05 25° ESE 19:52:17 10° ENE
EXPRESS MD2 3.5 19:47:22 10° SSW 19:50:04 40° SE 19:54:43 10° ENE
STARLINK-1125 3.8 19:46:25 10° WNW 19:50:31 63° SW 19:54:31 11° SE
STARLINK-1098 4.4 19:48:41 10° NW 19:52:44 49° NNE 19:56:46 10° E
Cosmos 1833 Rocket 3.2 19:47:57 10° NNW 19:53:27 57° WSW 19:58:55 10° S
Cosmos 2297 4.1 19:48:39 10° S 19:53:55 41° ESE 19:59:14 10° NE
Cosmos 1943 Rocket 3.6 19:50:50 10° SE 19:54:35 19° E 19:58:22 10° ENE
STARLINK-1109 3.9 19:51:24 10° WNW 19:55:29 58° SW 19:59:18 11° SE
STARLINK-1123 4.3 19:53:39 10° NW 19:57:42 52° NNE 20:01:46 10° E
STARLINK-1246 4.0 19:54:06 10° WSW 19:58:13 70° NNW 20:02:23 10° ENE
IGS 5A 3.9 19:55:29 10° SE 19:59:26 46° ENE 20:03:26 10° N
Cosmos 2082 Rocket 2.3 19:54:26 10° NNW 20:00:11 81° WSW 20:05:52 10° SSE
Cosmos 1420 Rocket 4.5 19:55:09 10° SSW 20:00:19 66° WNW 20:05:30 10° NNE
STARLINK-1091 4.0 19:56:22 10° WNW 20:00:25 54° SW 20:04:04 12° SE
Cosmos 1452 Rocket 3.5 19:55:16 10° SSW 20:00:33 88° ESE 20:05:53 10° NNE
Cosmos 332 Rocket 3.8 19:55:58 10° SSW 20:00:50 71° ESE 20:05:44 10° NNE
BREEZE-M DEB 3.3 19:59:10 10° S 20:01:05 22° SE 20:04:09 10° ENE
Landsat 7 4.1 19:57:48 10° SSE 20:02:25 54° ENE 20:07:05 10° N
STARLINK-1097 4.2 19:58:39 10° NW 20:02:44 54° NNE 20:06:48 10° ESE
Intercosmos 24 3.7 19:59:22 10° N 20:02:56 89° ENE 20:06:49 10° S
STARLINK-1224 4.1 19:59:05 10° WSW 20:03:12 66° NNW 20:07:21 10° ENE
STARLINK-1072 4.1 20:01:24 10° WNW 20:05:25 49° SW 20:08:52 13° SE
Cosmos 1461 2.8 20:03:10 10° SSW 20:07:15 68° ESE 20:11:36 10° NE
STARLINK-1099 4.1 20:03:37 10° NW 20:07:43 57° NNE 20:11:48 10° ESE
STARLINK-1225 4.2 20:04:06 10° WSW 20:08:12 62° NNW 20:12:20 10° ENE
Okean 3 4.2 20:05:06 10° SSW 20:09:20 57° WNW 20:13:35 10° N
STARLINK-1096 4.2 20:06:24 10° WNW 20:10:22 45° SW 20:13:39 14° SSE
Cosmos 2369 Rocket 3.6 20:07:22 12° SE 20:10:30 19° E 20:14:16 10° ENE
SAR-Lupe-2 3.8 20:07:58 10° NNE 20:11:29 50° E 20:14:59 10° S
STARLINK-1104 4.0 20:08:35 10° WNW 20:12:42 61° NNE 20:16:40 11° ESE
STARLINK-1230 4.3 20:09:06 10° WSW 20:13:11 59° NNW 20:17:18 10° NE
NOSS 2-2 (C) 3.7 20:10:18 10° S 20:13:34 35° ESE 20:17:04 10° NE
STARLINK-1079 4.3 20:11:24 10° WNW 20:15:19 42° SW 20:18:26 15° SSE
Cosmos 2221 Rocket 4.5 20:12:48 10° SSW 20:17:13 53° WNW 20:21:42 10° N
ATLAS 2AS CENTAUR R/B 4.3 20:13:12 12° SE 20:17:29 19° ESE 20:22:42 10° ENE
STARLINK-1144 3.9 20:13:34 10° WNW 20:17:42 64° NNE 20:21:27 12° ESE
SL-4 R/B 3.6 20:15:45 10° WNW 20:17:47 17° WSW 20:19:42 10° SSW
STARLINK-1243 4.4 20:14:07 10° WSW 20:18:11 55° NNW 20:22:18 10° NE
SPOT 5 3.7 20:14:18 14° SE 20:18:34 43° ENE 20:23:37 10° N
NOSS 3-2 (A) 4.5 20:12:55 10° NW 20:20:09 56° NE 20:27:48 12° ESE
STARLINK-1116 4.5 20:16:25 10° WNW 20:20:17 38° SW 20:23:13 16° SSE
Meteor 1-13 Rocket 4.4 20:15:13 10° SSW 20:20:50 76° WNW 20:26:37 10° N
STARLINK-1103 3.8 20:18:32 10° WNW 20:22:41 68° NNE 20:26:14 14° ESE
ERS-1 Rocket 3.3 20:19:40 15° SE 20:23:44 53° ENE 20:28:38 10° N
STARLINK-1101 3.8 20:23:30 10° WNW 20:27:40 73° NNE 20:31:01 15° ESE
Cosmos 1066 Rocket 4.1 20:23:08 10° S 20:28:28 68° E 20:33:48 10° NNE
USA 245 2.7 20:27:56 16° S 20:30:12 63° WSW 20:32:46 10° NNW
USA 238 DEB 4.2 20:24:58 10° NW 20:32:06 60° NE 20:38:25 15° ESE
USA 238 4.2 20:25:05 10° NW 20:32:11 60° NE 20:38:32 14° ESE
STARLINK-1102 3.7 20:28:30 10° WNW 20:32:39 77° NNE 20:35:48 17° ESE
Cosmos 2278 Rocket 4.0 20:28:38 10° WSW 20:33:47 35° NW 20:38:58 10° NNE
Resurs 01 Rocket 3.2 20:29:51 10° SSW 20:33:47 31° W 20:37:46 10° NNW
Okean 1 Rocket 3.0 20:30:03 10° N 20:34:33 80° E 20:37:54 17° SSE
Cosmos 1805 3.7 20:31:00 10° N 20:34:48 47° ENE 20:37:07 21° SE
Nadezhda 4 Rocket 3.9 20:28:49 10° S 20:34:54 71° E 20:41:00 10° NNE
Cosmos 1741 Rocket 4.5 20:30:09 10° NNW 20:35:16 56° WSW 20:39:49 13° S
GPS 2-04 Rocket1 4.4 20:33:58 10° SW 20:35:54 14° S 20:35:57 14° S
STARLINK-1111 3.6 20:33:28 10° WNW 20:37:38 82° NNE 20:40:34 19° ESE
Cosmos 1455 Rocket 4.3 20:36:19 10° NNE 20:40:04 27° ENE 20:42:18 18° ESE
STARLINK-1073 3.6 20:38:27 10° WNW 20:42:37 88° NE 20:45:22 21° ESE
SL-8 R/B 3.7 20:37:52 10° WNW 20:42:41 79° SSW 20:46:16 18° ESE
SL-4 R/B 3.1 20:43:13 10° SSW 20:47:21 30° SE 20:51:34 10° ENE
Terra 2.1 20:44:22 21° SE 20:47:24 54° ENE 20:52:03 10° N
ATLAS 3B CENTAUR R/B 4.1 20:37:32 10° SW 20:47:27 24° S 20:50:57 18° SSE
Cosmos 1110 Rocket 4.0 20:42:17 10° SSW 20:47:29 90° ESE 20:52:41 10° NNE
STARLINK-1121 3.6 20:43:26 10° WNW 20:47:35 87° SSW 20:50:08 23° ESE
Spot 2 Rocket 4.2 20:44:03 11° S 20:48:41 50° W 20:53:36 10° NNW
SPOT 1/Viking Rocket 3.7 20:45:17 15° S 20:49:31 69° WSW 20:54:40 10° NNW
Cosmos 1842 4.1 20:48:51 24° SE 20:50:20 32° E 20:53:51 10° NNE
CARTOSAT-1 3.5 20:47:49 21° SSE 20:50:40 87° ENE 20:55:00 10° NNW
Abrixas rocket 2.3 20:48:14 10° W 20:51:05 45° SSW 20:51:50 35° SSE
STARLINK-1106 3.5 20:48:26 10° WNW 20:52:35 81° SSW 20:54:56 25° SE
STARLINK-1112 3.6 20:53:23 10° WNW 20:57:32 76° SSW 20:59:42 27° SE
STARLINK-1128 3.6 20:58:22 10° WNW 21:02:30 70° SW 21:04:28 29° SE
Cosmos 1331 Rocket 4.2 20:59:09 10° SSW 21:04:17 73° WNW 21:09:30 10° NNE
SWAS 4.5 21:00:17 10° NNW 21:04:38 73° ENE 21:06:45 29° SE
Aureole 2 Rocket 4.3 21:02:32 10° WSW 21:05:12 26° WNW 21:07:47 10° N
STARLINK-1113 3.7 21:03:22 10° WNW 21:07:28 65° SW 21:09:15 32° SE
Cosmos 1733 3.1 21:04:07 10° N 21:07:56 77° E 21:09:32 33° SSE
COSMOS 2455 4.1 21:09:45 19° ESE 21:10:50 20° ESE 21:15:05 10° ENE
Cosmos 1378 3.6 21:09:41 18° SSW 21:12:16 59° W 21:15:58 10° N
STARLINK-1119 3.7 21:08:22 10° WNW 21:12:28 60° SW 21:14:04 34° SSE
Cosmos 1302 Rocket 4.0 21:10:14 17° SSW 21:14:22 75° ESE 21:19:40 10° NNE
Cosmos 1271 Rocket 3.8 21:14:22 27° ESE 21:15:03 28° E 21:18:26 10° NNE
USA 215 4.3 21:09:00 10° E 21:15:06 43° NNE 21:21:11 10° NW
Cosmos 1486 Rocket 4.3 21:10:10 10° NNW 21:15:26 60° ENE 21:18:13 27° SE
Cosmos 1242 Rocket 3.2 21:15:26 35° SE 21:16:11 40° E 21:19:40 10° NNE
Cosmos 1544 Rocket 4.0 21:12:46 10° N 21:16:58 46° ENE 21:18:39 30° SE
STARLINK-1114 3.8 21:13:21 10° WNW 21:17:25 55° SW 21:18:49 35° SSE
MTI 3.6 21:15:07 10° NNE 21:18:16 71° ESE 21:18:58 49° S
STARLINK-60 3.6 21:20:10 37° E 21:20:10 37° E 21:22:27 10° ENE
Lacrosse 5 4.1 21:17:11 10° W 21:19:36 13° WSW 21:22:01 10° SSW
Cosmos 1092 Rocket 4.0 21:15:31 17° S 21:20:26 84° W 21:26:38 10° N
NOSS 2-2 (D) 4.1 21:18:29 10° WSW 21:21:58 49° NW 21:25:55 10° NNE
STARLINK-1130 (DARKSAT) 3.9 21:18:21 10° WNW 21:22:23 51° SW 21:23:37 37° SSE
CENTAUR R/B 3.3 21:16:46 10° NW 21:24:46 72° NE 21:31:08 21° SE
Cosmos 1707 3.8 21:24:35 28° ESE 21:25:09 29° E 21:28:32 10° NNE
STARLINK-1084 4.0 21:23:21 10° WNW 21:27:20 47° SW 21:28:24 37° S
ATLAS 3B R/B 3.7 21:21:26 10° NNW 21:27:48 41° NE 21:33:57 12° ESE
SL-27 R/B 2.4 21:24:58 10° NNW 21:28:35 88° WSW 21:29:28 49° SSE
NOSS 3-2 (C) 4.1 21:22:28 10° NW 21:30:00 82° NE 21:35:37 24° SE
Cosmos 1766 4.2 21:27:04 10° NNW 21:30:52 43° W 21:32:47 25° SSW
Cosmos 1726 3.8 21:29:03 10° NNE 21:32:01 22° ENE 21:32:50 20° E
STARLINK-1098 4.1 21:28:22 10° WNW 21:32:18 43° SW 21:33:11 37° S
Cosmos 1867 4.2 21:29:30 10° NNW 21:34:51 51° NE 21:38:07 22° ESE
COSMOS 2487 4.3 21:33:22 10° N 21:36:04 21° ENE 21:37:03 19° E
STARLINK-1123 4.2 21:33:21 10° WNW 21:37:14 40° SW 21:37:56 36° SSW
Cosmos 1943 Rocket 2.4 21:32:10 10° SW 21:37:42 70° WNW 21:43:19 10° NNE
Cosmos 1992 Rocket 4.3 21:36:08 33° SSE 21:37:58 48° ESE 21:42:58 10° NNE
NOSS 3-4 (A) 3.6 21:36:32 28° S 21:39:14 47° ESE 21:45:13 10° NE
NOSS 3-4 (C) 3.7 21:36:40 29° S 21:39:21 47° ESE 21:45:19 10° NE
Cosmos 1428 Rocket 4.5 21:36:33 23° S 21:40:43 87° W 21:47:03 10° N
STARLINK-1097 4.3 21:38:24 10° WNW 21:42:13 37° SW 21:42:45 35° SSW
SeaSat 1 2.9 21:38:47 10° NE 21:43:26 40° ESE 21:44:34 35° SE
EO 1 Del DPAF 3.6 21:40:27 10° NNE 21:44:05 44° E 21:44:29 43° ESE
STARLINK-1099 4.4 21:43:24 10° WNW 21:47:10 34° SW 21:47:31 33° SSW
Cosmos 1975 Rocket 3.8 21:44:36 21° SW 21:47:18 50° WNW 21:51:36 10° N
STARLINK-1212 3.7 21:46:57 10° NW 21:49:58 47° NNE 21:50:47 36° ENE
STARLINK-1105 3.7 21:47:25 10° NW 21:50:27 47° NNE 21:51:13 37° ENE
Cosmos 292 Rocket 3.8 21:48:20 28° SSW 21:50:57 85° WNW 21:55:50 10° NNE
STARLINK-1247 3.7 21:48:17 10° NW 21:51:20 48° NNE 21:52:06 37° ENE
STARLINK-1227 3.7 21:48:47 10° NW 21:51:49 48° NNE 21:52:33 38° ENE
BREEZE-M DEB (TANK) 3.6 21:38:09 10° WSW 21:51:49 78° NNW 21:55:29 10° ENE
Meteor 2-10 4.3 21:46:54 10° N 21:51:52 54° ENE 21:53:43 35° SE
STARLINK-1226 3.7 21:49:38 10° NW 21:52:41 49° NNE 21:53:24 39° ENE
BREEZE-M DEB (TANK) 3.4 21:49:08 10° WNW 21:52:52 59° N 21:56:50 10° E
RESURS DK-1 4.5 21:53:56 14° E 21:53:56 14° E 21:55:28 10° ENE
STARLINK-1215 3.6 21:50:32 10° NW 21:53:35 49° NNE 21:54:16 40° ENE
Cosmos 2369 Rocket 2.4 21:49:04 15° SW 21:53:53 73° WNW 21:59:33 10° NNE
S3M 4.1 21:49:08 10° N 21:55:17 68° E 21:58:11 33° SSE
STARLINK-1217 3.6 21:52:20 10° NW 21:55:24 51° NNE 21:56:00 42° ENE
STARLINK-1229 3.5 21:53:14 10° NW 21:56:19 51° NNE 21:56:54 43° ENE
STARLINK-1270 3.5 21:54:08 10° NW 21:57:12 52° NNE 21:57:45 44° ENE
Aureole 3 Rocket 4.4 21:52:42 10° NNW 21:59:00 80° W 22:03:53 28° S
STARLINK-1189 3.5 21:55:56 10° NW 21:59:00 54° NNE 21:59:29 47° ENE
ATLAS CENTAUR R/B 1.7 21:59:35 45° SE 21:59:48 46° ESE 22:03:48 10° NE
STARLINK-1188 3.4 21:56:51 10° NW 21:59:56 54° NNE 22:00:22 48° ENE
STARLINK-1187 3.2 21:57:56 10° NW 22:01:01 61° NNE 22:01:14 58° NE
Cosmos 1340 Rocket 3.4 21:57:45 10° N 22:01:41 45° ENE 22:02:31 39° ESE
STARLINK-1191 3.3 21:59:17 10° NW 22:02:21 56° NNE 22:02:39 53° NE
STARLINK-1221 3.3 22:00:14 10° NW 22:03:18 57° NNE 22:03:34 54° NE
Aureole 3 4.2 22:00:44 10° NNE 22:03:24 26° ENE 22:03:24 26° ENE
Cosmos 1025 Rocket 2.9 22:02:58 49° S 22:04:06 86° E 22:08:25 10° N
STARLINK-1222 3.3 22:01:05 10° NW 22:04:09 58° NNE 22:04:23 55° NE
Thor Agena Rocket 3.5 21:59:38 10° NNE 22:04:58 83° ESE 22:07:12 36° S
STARLINK-1214 3.2 22:01:58 10° NW 22:05:03 59° NNE 22:05:15 57° NE
ATLAS 2AS CENTAUR R/B 3.0 22:00:30 15° SSW 22:07:22 78° SE 22:15:21 10° NE
Cosmos 1656 Rocket 3.6 22:04:50 33° SSW 22:07:29 78° ESE 22:13:04 10° NNE
BREEZE M DEB (TANK) 3.0 22:05:21 10° W 22:08:13 41° N 22:08:33 37° NNE
Cosmos 1553 Rocket 4.0 22:02:31 10° NNW 22:08:47 74° W 22:11:43 33° S
Cosmos 1953 2.3 22:06:04 10° N 22:10:03 68° E 22:10:41 56° SE
BREEZE-M DEB (TANK) 3.8 21:58:30 10° WNW 22:10:22 72° SSW 22:11:56 40° SE
STARLINK-1228 3.0 22:07:25 10° WNW 22:10:56 85° NNE 22:11:08 78° E
Cosmos 1470 3.3 22:07:20 10° NNW 22:11:05 49° W 22:11:51 41° SW
APEX 4.5 22:06:47 16° SW 22:12:05 71° WNW 22:17:26 10° NNE
Cosmos 2292 Rocket 3.6 22:13:24 44° E 22:13:24 44° E 22:16:28 10° NNE
STARLINK-1235 3.0 22:10:08 10° WNW 22:13:12 77° NNW 22:13:12 77° NNW
Cosmos 968 Rocket 3.8 22:10:53 10° NNW 22:15:54 55° WSW 22:17:31 38° SSW
Cosmos 1455 Rocket 4.5 22:14:07 10° NNW 22:17:51 29° W 22:19:25 23° SW
Cosmos 1655 Rocket 3.9 22:15:02 34° S 22:17:56 88° ESE 22:24:15 10° N
SL-4 R/B 3.3 22:20:18 19° NNE 22:20:18 19° NNE 22:21:10 10° N
ATLAS 5 CENTAUR R/B 1.4 22:21:46 58° SW 22:22:21 89° SE 22:24:41 10° NE
Cosmos 1758 4.1 22:20:44 10° NNW 22:24:34 41° W 22:25:25 36° SW
STARLINK-52 4.3 22:26:27 30° ENE 22:26:27 30° ENE 22:28:15 10° ENE
Terra 3.8 22:23:15 14° SW 22:25:29 19° W 22:28:51 10° NW
SL-4 R/B 2.5 22:21:59 10° WSW 22:26:49 78° NNW 22:31:40 10° ENE
Cosmos 2228 3.7 22:23:44 10° N 22:27:47 41° ENE 22:28:36 37° ESE
Meteor 2-15 4.4 22:22:29 10° N 22:28:39 75° E 22:31:06 38° SSE
STARLINK-1234 3.8 22:27:55 10° WNW 22:30:17 43° W 22:30:17 43° W
STARLINK-1245 4.4 22:27:35 10° NW 22:31:38 50° NNE 22:34:26 18° E
In-Cosmos 22 4.0 22:30:05 44° S 22:31:48 83° E 22:37:07 10° NNE
Cosmos 1503 Rocket 4.4 22:30:54 10° NNW 22:36:03 52° WSW 22:37:35 39° SSW
Cosmos 2266 Rocket 3.9 22:33:43 38° S 22:36:13 89° E 22:42:18 10° N
STARLINK-1233 4.3 22:32:32 10° NW 22:36:37 52° NNE 22:39:12 21° E
STARLINK-1209 4.2 22:34:05 10° WNW 22:36:13 35° W 22:36:13 35° W
STARLINK-1204 4.2 22:37:31 10° NW 22:41:37 55° NNE 22:43:59 23° E
SJ 16-02 3.9 22:41:19 10° NNE 22:43:51 15° NE 22:46:24 10° E
STARLINK-1238 4.1 22:42:31 10° NW 22:46:38 58° NNE 22:48:47 26° E
Cosmos 1674 2.5 22:48:20 77° ESE 22:48:25 78° E 22:52:13 10° NNE
Meteor 2-15 Rocket 4.4 22:42:24 10° N 22:48:35 85° E 22:50:55 41° SSE
Helios 1B rocket 4.2 22:46:53 10° NE 22:49:58 20° E 22:50:09 20° E
STARLINK-1201 4.0 22:47:29 10° WNW 22:51:37 62° NNE 22:53:33 29° E
COSMOS 2455 2.9 22:52:50 29° SW 22:56:07 76° NW 23:02:10 10° NNE
STARLINK-1206 3.9 22:52:29 10° WNW 22:56:37 65° NNE 22:58:21 33° E
USA 215 3.2 22:52:56 20° SE 22:57:44 88° NE 23:04:20 10° NW
Cosmos 2219 4.2 22:53:20 10° NNW 22:58:41 40° NE 23:02:18 19° ESE
STARLINK-1205 3.8 22:57:26 10° WNW 23:01:35 70° NNE 23:03:07 37° E
Helios 1A 2.9 23:01:35 64° SSE 23:02:12 82° ENE 23:06:25 10° NNW
Cosmos 2297 Rocket 3.4 22:57:42 10° NNW 23:02:56 36° NE 23:07:00 15° ESE
Lacrosse 4 Rocket 4.2 23:03:40 10° N 23:06:16 15° NE 23:08:50 10° ENE
STARLINK-1218 3.7 23:02:26 10° WNW 23:06:36 74° NNE 23:07:55 42° ESE
Cosmos 1726 3.5 23:04:02 10° NNW 23:07:13 27° W 23:07:20 27° W
STARLINK-1368 4.2 23:08:27 39° E 23:08:27 39° E 23:11:06 10° ENE
ALOS 2 3.0 23:07:47 45° SW 23:08:22 48° W 23:12:39 10° NNW
Timation 2 Rocket 3.8 23:04:07 10° NNW 23:10:28 88° WSW 23:12:55 39° SSE
STARLINK-1369 4.0 23:11:47 43° E 23:11:47 43° E 23:14:35 10° ENE
Cosmos 2058 Rocket 3.3 23:06:39 10° N 23:11:05 64° E 23:11:58 51° SE
COSMOS 2487 4.0 23:08:09 10° NW 23:10:32 25° W 23:10:32 25° W
STARLINK-1254 3.6 23:07:24 10° WNW 23:11:35 79° NNE 23:12:41 47° ESE
STARLINK-1372 3.9 23:15:07 48° E 23:15:07 48° E 23:18:05 10° ENE
CENTAUR R/B 4.0 23:07:59 10° NW 23:15:15 35° WSW 23:18:17 28° SSW
Meteor 2-5 Rocket 3.6 23:14:12 46° S 23:15:58 87° E 23:21:38 10° NNE
STARLINK-1231 3.5 23:12:22 10° WNW 23:16:33 84° NNE 23:17:27 54° ESE
STARLINK-1378 3.7 23:18:28 54° E 23:18:28 54° E 23:21:36 10° ENE
ATLAS 3B R/B 2.9 23:12:06 10° NW 23:18:45 56° WSW 23:21:10 38° S
SL-14 R/B 3.3 23:19:11 61° ESE 23:19:18 61° E 23:23:06 10° NNE
FALCON 9 DEB 3.6 23:20:07 55° WNW 23:20:28 59° NNW 23:23:53 10° NE
SeaSat 1 3.8 23:16:27 10° NNE 23:20:52 34° NW 23:24:20 15° WSW
Cosmos 1606 Rocket 3.8 23:16:52 10° NNW 23:21:05 51° W 23:21:36 48° WSW
STARLINK-1379 3.6 23:21:51 60° E 23:21:51 60° E 23:25:07 10° ENE
STARLINK-1232 3.5 23:17:22 10° WNW 23:21:32 89° NNE 23:22:14 61° ESE
STARLINK-1329 3.5 23:23:14 63° E 23:23:14 63° E 23:26:35 10° ENE
Meteor 2-21 4.4 23:20:59 42° S 23:23:17 85° E 23:29:31 10° N
STARLINK-29 4.4 23:24:02 24° WNW 23:25:26 37° NNW 23:28:27 10° NE
SL-16 R/B 4.5 23:21:07 10° ESE 23:25:45 23° ENE 23:30:24 10° N
STARLINK-1362 3.4 23:26:41 70° E 23:26:41 70° E 23:30:10 10° ENE
STARLINK-1208 3.5 23:22:20 10° WNW 23:26:30 85° SSW 23:27:00 68° SE
ATLAS CENTAUR R/B 2.6 23:26:34 10° NNW 23:28:47 37° NE 23:32:50 10° ESE
Cosmos 1656 4.5 23:27:53 33° SE 23:29:16 37° ESE 23:34:24 10° NE
STARLINK-1373 3.3 23:30:05 78° ESE 23:30:05 78° ESE 23:33:45 10° ENE
RESURS DK-1 2.7 23:29:48 46° WSW 23:30:40 58° WNW 23:34:46 10° NNE
STARLINK-1365 3.3 23:31:11 85° SE 23:31:11 85° SE 23:35:00 10° ENE
STARLINK-1271 3.4 23:27:20 10° WNW 23:31:30 80° SSW 23:31:49 73° SSE
STARLINK-1390 3.2 23:33:35 86° ESE 23:33:35 86° ESE 23:37:22 10° ENE
Cosmos 1697 Rocket 4.2 23:32:47 21° SE 23:34:22 23° ESE 23:38:44 10° NE
Cosmos 2084 3.7 23:33:37 45° WSW 23:34:51 70° NW 23:39:21 10° NE
Cosmos 1626 2.0 23:36:00 77° W 23:36:05 78° W 23:39:50 10° N
STARLINK-1154 3.4 23:32:19 10° WNW 23:36:29 74° SSW 23:36:35 73° SSW
BREEZE-M R/B 3.3 23:31:45 20° SW 23:36:38 70° SSE 23:40:21 10° ENE
Okean 1-7 Rocket 3.6 23:37:39 55° SW 23:38:31 72° W 23:43:04 10° N
ATLAS CENTAUR R/B 3.3 23:35:42 12° W 23:38:51 26° NW 23:42:21 10° NNE
Cosmos 2227 Rocket 2.7 23:34:22 10° NNW 23:40:00 57° ENE 23:43:30 23° SE
STARLINK-1197 3.5 23:37:17 10° WNW 23:41:21 69° SW 23:41:21 69° SW
CZ-4 R/B 3.7 23:37:57 10° NNE 23:42:44 79° ESE 23:43:50 53° S
STARLINK-1198 3.6 23:42:16 10° WNW 23:46:07 62° WSW 23:46:07 62° WSW
Cosmos 1602 Rocket 4.1 23:47:23 41° SE 23:48:13 47° E 23:52:23 10° NNE
SL-08 ROCKET BODY 4.5 23:46:46 38° SSE 23:49:00 65° E 23:54:48 10° NNE
STARLINK-1199 3.8 23:47:17 10° WNW 23:50:55 55° WSW 23:50:55 55° WSW
Meteor 2-21 Rocket 4.5 23:50:06 39° SSW 23:52:33 76° W 23:58:46 10° N
STARLINK-1269 4.4 23:49:32 10° NW 23:53:36 51° NNE 23:57:40 10° E
